Weather History for KCAD - July, 2013

Change the Weather History Date:

Saturday, July 13, 2013

  Actual Average Record
Temperature  
Mean Temperature 67 °F -  
Max Temperature 83 °F 78 °F 91 °F (1987)
Min Temperature 51 °F 54 °F 41 °F (1950)
Cooling Degree Days 2    
Growing Degree Days 17 (Base 50)    
Moisture  
Dew Point 55 °F    
Average Humidity 63    
Maximum Humidity 92    
Minimum Humidity 36    
Precipitation  
Precipitation 0.00 in - - ()
Sea Level Pressure  
Sea Level Pressure 30.19 in    
Wind  
Wind Speed 2 mph (SSE)    
Max Wind Speed 10 mph    
Max Gust Speed -    
Visibility 10 miles    
Events      
Averages and records for this station are not official NWS values.
T = Trace of Precipitation, MM = Missing Value Source: NWS Daily Summary

Daily Weather History Graph

Daily Weather History Graph

Search for Another Location

Airport or City:

Trip Planner

Search our weather history database for the weather conditions in past years. The results will help you decide how hot, cold, wet, or windy it might be!

Date:

Astronomy

Jul. 13, 2013 Rise Set
Actual Time 6:10 AM EDT 9:24 PM EDT
Civil Twilight 5:34 AM EDT 9:59 PM EDT
Nautical Twilight 4:49 AM EDT 10:45 PM EDT
Astronomical Twilight 3:52 AM EDT 11:41 PM EDT
Moon 11:39 AM EDT (7/13) 11:49 PM EDT (7/13)
Length of Visible Light 16h 24m
Length of Day
15h 13m
Waxing Crescent, 25% of the Moon is Illuminated
Jul 13
Waxing Crescent
Jul 15
First Quarter
Jul 22
Full
Jul 29
Last Quarter
Aug 6
New

Hourly Weather History & Observations

Time (EDT) Temp. Heat Index Dew Point Humidity Pressure Visibility Wind Dir Wind Speed Gust Speed Precip Events Conditions
12:15 AM 58.5 °F - 54.1 °F 86% 30.15 in 10.0 mi Calm Calm - N/A   Clear
12:35 AM 58.5 °F - 54.3 °F 86% 30.15 in 10.0 mi Calm Calm - N/A   Clear
12:55 AM 57.6 °F - 53.8 °F 87% 30.14 in 10.0 mi Calm Calm - N/A   Clear
1:15 AM 57.6 °F - 53.6 °F 87% 30.14 in 10.0 mi East 3.5 mph - N/A   Clear
1:35 AM 56.5 °F - 52.9 °F 88% 30.14 in 10.0 mi Calm Calm - N/A   Clear
1:54 AM 55.6 °F - 52.3 °F 89% 30.15 in 10.0 mi Calm Calm - N/A   Clear
2:15 AM 54.0 °F - 51.1 °F 90% 30.15 in 10.0 mi Calm Calm - N/A   Clear
2:35 AM 54.0 °F - 51.1 °F 90% 30.15 in 10.0 mi Calm Calm - N/A   Clear
2:54 AM 51.6 °F - 49.1 °F 91% 30.16 in 10.0 mi Calm Calm - N/A   Clear
3:15 AM 51.4 °F - 48.7 °F 90% 30.17 in 10.0 mi Calm Calm - N/A   Clear
3:35 AM 52.7 °F - 50.2 °F 91% 30.17 in 7.0 mi Calm Calm - N/A   Clear
3:54 AM 51.4 °F - 48.7 °F 90% 30.17 in 10.0 mi Calm Calm - N/A   Clear
4:15 AM 51.4 °F - 48.7 °F 90% 30.18 in 10.0 mi Calm Calm - N/A   Clear
4:35 AM 51.4 °F - 49.1 °F 92% 30.18 in 10.0 mi Calm Calm - N/A   Clear
4:54 AM 51.4 °F - 49.1 °F 92% 30.18 in 10.0 mi Calm Calm - N/A   Clear
5:15 AM 51.4 °F - 49.1 °F 92% 30.18 in 10.0 mi Calm Calm - N/A   Clear
5:35 AM 51.4 °F - 49.1 °F 92% 30.18 in 10.0 mi Calm Calm - N/A   Clear
5:54 AM 51.4 °F - 49.1 °F 92% 30.18 in 10.0 mi Calm Calm - N/A   Clear
6:15 AM 51.4 °F - 49.1 °F 92% 30.18 in 10.0 mi Calm Calm - N/A   Clear
6:35 AM 51.4 °F - 49.1 °F 92% 30.17 in 3.0 mi Calm Calm - N/A   Clear
6:54 AM 51.4 °F - 49.1 °F 92% 30.17 in 10.0 mi Calm Calm - N/A   Clear
7:15 AM 54.0 °F - 51.3 °F 91% 30.17 in 10.0 mi Calm Calm - N/A   Clear
7:35 AM 56.5 °F - 53.6 °F 90% 30.18 in 10.0 mi Calm Calm - N/A   Clear
7:55 AM 61.7 °F - 57.6 °F 86% 30.18 in 10.0 mi Calm Calm - N/A   Clear
8:15 AM 66.2 °F - 60.1 °F 81% 30.19 in 10.0 mi Calm Calm - N/A   Clear
8:35 AM 71.6 °F - 62.4 °F 73% 30.20 in 10.0 mi South 8.1 mph - N/A   Clear
8:55 AM 71.6 °F - 61.7 °F 71% 30.21 in 10.0 mi South 9.2 mph - N/A   Clear
9:15 AM 71.6 °F - 61.2 °F 70% 30.21 in 10.0 mi South 9.2 mph - N/A   Clear
9:35 AM 72.7 °F - 61.2 °F 67% 30.21 in 10.0 mi SSW 6.9 mph - N/A   Clear
9:55 AM 75.2 °F - 61.5 °F 62% 30.21 in 10.0 mi South 9.2 mph - N/A   Clear
10:15 AM 76.6 °F - 62.1 °F 61% 30.20 in 10.0 mi SSE 6.9 mph - N/A   Clear
10:34 AM 76.6 °F - 60.3 °F 57% 30.20 in 10.0 mi SSW 6.9 mph - N/A   Clear
10:55 AM 76.6 °F - 58.8 °F 54% 30.20 in 10.0 mi South 8.1 mph - N/A   Clear
11:15 AM 79.2 °F - 59.9 °F 52% 30.20 in 10.0 mi South 5.8 mph - N/A   Clear
11:34 AM 79.2 °F - 58.8 °F 50% 30.20 in 10.0 mi South 8.1 mph - N/A   Clear
11:55 AM 79.2 °F - 57.9 °F 48% 30.20 in 10.0 mi SSE 10.4 mph - N/A   Clear
12:15 PM 79.2 °F - 57.4 °F 47% 30.21 in 10.0 mi SSW 6.9 mph - N/A   Clear
12:34 PM 79.3 °F - 56.8 °F 46% 30.21 in 10.0 mi SSE 4.6 mph - N/A   Clear
12:55 PM 81.0 °F 81.0 °F 56.8 °F 44% 30.21 in 10.0 mi WSW 6.9 mph - N/A   Scattered Clouds
1:15 PM 81.3 °F 81.3 °F 57.7 °F 44% 30.21 in 10.0 mi SW 6.9 mph - N/A   Scattered Clouds
1:34 PM 81.5 °F 81.3 °F 56.1 °F 42% 30.21 in 10.0 mi South 3.5 mph - N/A   Scattered Clouds
1:55 PM 82.6 °F 82.2 °F 57.0 °F 42% - 10.0 mi SW 4.6 mph - N/A   Scattered Clouds
2:15 PM 81.7 °F 81.4 °F 56.5 °F 42% 30.20 in 10.0 mi SE 5.8 mph - N/A   Scattered Clouds
2:34 PM 81.7 °F 81.4 °F 56.5 °F 42% 30.20 in 10.0 mi South 3.5 mph - N/A   Clear
2:55 PM 81.9 °F 81.2 °F 54.3 °F 39% 30.20 in 10.0 mi Calm Calm - N/A   Clear
3:14 PM 82.2 °F 81.3 °F 53.8 °F 37% 30.19 in 10.0 mi SE 4.6 mph - N/A   Scattered Clouds
3:35 PM 83.5 °F 82.2 °F 54.0 °F 36% 30.19 in 10.0 mi Calm Calm - N/A   Scattered Clouds
3:54 PM 83.1 °F 81.9 °F 53.4 °F 36% 30.19 in 10.0 mi Calm Calm - N/A   Scattered Clouds
4:15 PM 83.3 °F 82.2 °F 54.7 °F 37% 30.17 in 10.0 mi South 9.2 mph - N/A   Clear
4:35 PM 83.1 °F 82.1 °F 54.5 °F 37% 30.17 in 10.0 mi South 3.5 mph - N/A   Clear
4:54 PM 83.3 °F 82.2 °F 54.5 °F 37% 30.18 in 10.0 mi East 4.6 mph - N/A   Clear
5:15 PM 83.5 °F 82.5 °F 55.2 °F 38% 30.18 in 10.0 mi ESE 3.5 mph - N/A   Scattered Clouds
5:35 PM 82.4 °F 81.7 °F 55.0 °F 39% 30.18 in 10.0 mi Calm Calm - N/A   Scattered Clouds
5:54 PM 81.9 °F 81.1 °F 54.0 °F 38% 30.18 in 10.0 mi South 3.5 mph - N/A   Scattered Clouds
6:15 PM 81.9 °F 81.2 °F 54.5 °F 39% 30.18 in 10.0 mi SW 5.8 mph - N/A   Scattered Clouds
6:35 PM 81.7 °F 81.1 °F 54.1 °F 39% 30.18 in 10.0 mi SE 4.6 mph - N/A   Scattered Clouds
6:54 PM 81.7 °F 81.1 °F 54.1 °F 39% 30.18 in 10.0 mi SSE 5.8 mph - N/A   Clear
7:15 PM 81.7 °F 81.1 °F 54.5 °F 39% 30.18 in 10.0 mi SE 8.1 mph - N/A   Clear
7:35 PM 81.7 °F 81.2 °F 55.2 °F 40% 30.18 in 10.0 mi SSW 4.6 mph - N/A   Clear
7:55 PM 81.1 °F 80.8 °F 54.9 °F 40% 30.18 in 10.0 mi SSE 4.6 mph - N/A   Clear
8:15 PM 79.2 °F - 54.5 °F 42% 30.19 in 10.0 mi SSE 6.9 mph - N/A   Clear
8:35 PM 79.2 °F - 54.9 °F 43% 30.19 in 10.0 mi SSE 5.8 mph - N/A   Clear
8:55 PM 76.6 °F - 54.3 °F 46% 30.19 in 10.0 mi SSE 3.5 mph - N/A   Clear
9:15 PM 76.6 °F - 56.5 °F 50% 30.19 in 10.0 mi SSE 4.6 mph - N/A   Clear
9:34 PM 76.6 °F - 58.1 °F 53% 30.19 in 10.0 mi SSE 3.5 mph - N/A   Clear
9:55 PM 74.3 °F - 57.6 °F 56% 30.20 in 10.0 mi SSE 3.5 mph - N/A   Clear
10:15 PM 73.2 °F - 57.6 °F 58% 30.20 in 10.0 mi SE 3.5 mph - N/A   Clear
10:34 PM 71.6 °F - 56.1 °F 58% 30.21 in 10.0 mi SSE 4.6 mph - N/A   Clear
10:55 PM 71.6 °F - 56.1 °F 58% 30.21 in 10.0 mi SSE 3.5 mph - N/A   Clear
11:15 PM 71.6 °F - 56.7 °F 59% 30.22 in 10.0 mi SSE 4.6 mph - N/A   Clear
11:34 PM 71.6 °F - 55.9 °F 58% 30.22 in 10.0 mi SE 6.9 mph - N/A   Clear
11:55 PM 71.6 °F - 58.1 °F 62% 30.22 in 10.0 mi SE 4.6 mph - N/A   Clear